Location: Bothwell
(42.3833°S, 147.0000°E)
Time: 22:52:10
(UTC+11:00)

UWE-3 - Pass Details

Date: 30 September 2022
Orbit: 582 x 675 km, 97.7° (Epoch: 03 December)

Event Time Altitude Azimuth Distance (km) Brightness Sun altitude
Exits shadow 01:54:55 15° 165° (SSE) 1,794 ? -38.3°
Drops below altitude 10° 01:55:52 10° 172° (S) 2,113 ? -38.2°
Sets 01:58:21 0° 182° (S) 3,046 ? -37.9°
